Volver al catálogo

STARLINK-36749

ActivoComunicacionesSSO
NORAD 67734·PAYLOAD·🇺🇸 United States

Lanzado Feb 11, 2026 desde Vandenberg Space Force Base

Loading…

Próximos Pases (próximas 24 horas)

TLE

ActualizadoSource: CelesTrak SupGP

Época: Sep 14, 2026, 20:58 UTC

1 67734C 26026P   26257.87409722 -.00017822  00000+0 -55332-3 0  2573
2 67734  97.2853 309.7926 0000923 113.8785  80.1472 15.33444059    17

Sigue STARLINK-36749 en tiempo real con AllMySat

Download on the App Store